GSAT0219 (GALILEO 23)

Last updated on Wed Aug 19 2026 00:02:49 GMT+0000 (Coordinated Universal Time)

1 43566U 18060C 26228.92363169 -.00000110 00000+0 00000+0 0 9999 2 43566 57.1485 340.1470 0002453 277.5798 82.4094 1.70476359 50222
UTC large
Height (km)
Speed (km/s)
/
Latitude / Longitude
Inclination (degrees)
Orbital Period (minutes)
Azimuth
Elevation
Range (km)
Doppler Factor

Next 0 passes for location: London (51.5072 / 0.1276)

No passes found over London.
GSAT0219 (GALILEO 23)